RH
16 18 18 21 23 49 72 87 92 95 99 100 100 100 99 100 100 99 98 99 100 98 100 100 96 96 94 95 100 99 98 97 86 65 71 79 84 76 79 80 75 78 89
18 20 19 21 22 24 46 70 78 92 96 100 99 91 100 100 99 100 100 99 93 99 99 100 99 100 97 99 100 97 80 76 72 64 73 77 83 78 79 77 74 75 80
19 21 22 21 23 25 25 37 56 71 77 88 96 89 83 96 100 99 97 90 93 88 94 97 99 100 99 100 95 88 83 78 84 84 78 83 80 79 77 75 80 83 87
23 21 22 22 22 23 26 26 30 45 58 65 70 78 82 78 89 87 85 87 84 85 89 98 98 99 98 99 99 99 85 88 86 86 92 88 80 78 75 74 74 86 91
44 24 22 22 22 22 23 27 28 29 36 48 54 60 66 72 69 76 83 83 82 80 100 100 99 100 95 98 98 97 93 94 90 96 96 99 89 82 74 93 88 100 98
58 49 41 36 31 24 23 23 25 28 30 32 33 36 42 51 62 69 70 74 77 80 85 95 98 98 98 99 100 100 100 99 98 99 100 82 72 97 86 99 99 98 99
73 65 53 51 47 44 31 25 24 25 29 30 32 34 35 38 49 60 71 77 82 84 84 84 90 100 100 100 99 98 96 98 96 88 82 79 96 100 100 99 99 98 99
86 74 71 65 62 57 53 49 31 27 26 28 31 32 34 35 42 51 68 79 82 82 84 87 98 100 100 99 100 97 93 92 97 100 95 99 100 99 98 98 99 99 99
57 61 63 72 69 67 65 60 56 55 36 30 28 30 32 34 38 48 68 71 63 60 68 77 83 90 97 94 89 91 87 84 94 99 96 99 95 99 100 100 100 100 100
59 51 44 44 60 58 66 64 67 65 62 62 51 46 49 40 37 42 53 57 75 81 96 94 87 95 87 96 99 82 83 100 100 99 100 100 93 99 99 99 98 97 96
55 50 45 43 39 41 58 66 78 86 81 77 80 88 80 75 78 71 51 50 76 87 92 99 78 74 84 85 94 94 95 100 100 100 100 99 98 98 96 96 97 96 94
56 52 42 47 43 45 54 66 74 78 80 83 90 99 98 99 98 86 97 93 92 95 95 96 97 97 97 99 99 100 100 99 100 97 95 95 96 96 96 96 96 96 89
41 34 37 43 48 51 56 58 72 87 90 88 91 91 94 100 97 100 100 100 99 98 90 100 100 100 100 100 100 98 97 96 94 97 95 95 96 96 96 95 81 40 9
48 49 54 58 63 62 63 69 90 97 94 99 97 98 92 79 88 94 100 99 100 88 100 99 100 98 99 97 96 95 95 99 93 95 96 96 93 71 29 8 5 4 3
59 65 65 80 82 74 69 71 98 99 97 100 98 100 99 98 99 98 100 100 100 100 100 100 98 94 96 96 98 95 96 96 96 94 79 60 28 11 5 4 3 3 3
42 60 54 67 81 82 84 88 95 100 98 91 97 100 99 99 95 96 97 95 95 96 96 99 95 95 96 96 98 96 96 95 82 48 20 7 4 3 3 3 3 4 4
54 44 48 55 70 76 75 74 70 80 92 98 98 97 97 97 99 95 99 95 98 97 95 98 99 96 96 96 95 93 64 27 7 4 3 3 4 4 4 4 4 4 5
63 59 53 57 68 66 59 65 79 78 78 80 87 97 100 100 98 97 98 100 98 94 96 96 96 95 92 60 17 7 5 4 3 3 4 4 4 4 4 5 5 6 7
71 64 55 66 70 79 74 74 79 90 91 86 93 94 96 96 97 96 96 97 98 95 94 77 33 13 8 7 5 4 3 3 4 4 4 5 5 5 5 6 7 8 10
84 84 76 79 89 91 92 92 93 91 90 93 96 96 95 95 96 96 95 95 94 92 67 23 10 6 4 4 4 4 4 4 4 5 5 5 6 6 7 8 9 12 13
100 100 100 99 96 100 99 98 96 94 94 94 98 97 98 95 95 90 60 23 12 9 7 5 4 4 4 4 4 5 5 5 6 6 6 7 8 8 9 10 14 16 17
99 99 99 98 98 99 98 97 96 98 96 95 95 97 94 86 53 19 14 9 6 5 4 4 4 5 5 5 5 6 6 6 7 7 8 8 10 12 14 18 19 19 20
98 97 98 97 96 95 95 98 99 98 97 96 92 77 44 27 13 8 6 4 4 5 5 5 6 6 6 6 6 7 8 8 8 9 9 11 12 16 19 20 21 22 29
98 98 98 98 99 99 98 96 95 94 92 91 84 66 40 14 6 5 5 5 5 6 6 6 6 7 7 7 8 9 9 10 10 11 12 12 14 18 20 24 26 29 31
98 98 97 97 97 98 97 95 95 95 94 80 36 10 6 5 5 6 6 6 7 7 7 7 8 8 9 9 10 10 11 12 13 13 13 14 16 18 22 29 31 34 35
95 95 96 96 96 96 95 93 80 55 25 11 8 6 6 6 6 7 7 8 8 8 9 9 10 10 11 11 12 12 13 14 14 15 16 16 16 18 26 34 35 39 42
Wind_Speed
12 9 6 7 9 11 12 15 14 14 16 19 24 25 25 30 32 30 28 30 26 34 36 35 32 31 32 35 34 37 27 28 35 32 29 27 29 30 32 36 37 38 37
13 10 7 6 7 7 9 11 16 15 21 20 18 23 27 31 33 39 34 35 34 36 36 31 34 39 40 33 34 33 32 33 36 35 34 34 35 38 38 39 40 42 43
15 13 11 8 7 7 6 8 11 15 16 25 23 21 26 28 30 36 34 36 36 34 34 33 37 34 30 33 35 36 36 35 36 39 39 41 42 43 45 44 43 44 46
17 16 14 11 9 9 9 8 9 11 13 16 19 23 22 27 28 29 33 37 35 34 35 34 36 33 34 33 37 39 38 40 42 44 47 47 47 48 48 47 47 47 49
15 16 15 14 13 12 13 13 11 11 12 13 15 16 20 25 30 33 36 38 38 35 34 33 33 35 34 37 40 41 43 47 48 49 50 50 50 52 49 50 51 51 55
15 14 15 17 15 15 16 16 17 15 15 15 16 17 17 20 24 30 33 36 38 40 40 40 38 38 40 40 40 42 45 49 52 51 51 52 53 53 56 52 56 59 53
13 13 15 15 17 18 18 19 20 21 21 20 19 19 20 21 24 27 31 35 38 39 40 42 41 41 43 46 47 49 49 50 52 52 53 53 56 50 57 61 62 56 65
12 14 13 14 16 19 20 22 23 25 26 26 25 24 24 24 26 28 31 35 36 37 39 41 43 44 47 47 49 48 50 51 52 54 55 56 58 54 55 61 65 60 63
14 19 19 23 19 18 19 23 27 28 29 29 29 30 30 30 31 33 37 39 40 41 42 44 46 48 51 51 49 50 51 51 55 55 54 59 59 61 56 60 58 55 53
17 19 20 21 23 29 28 23 21 25 30 32 33 34 34 35 37 39 40 43 44 45 45 47 48 49 50 48 53 54 53 57 55 59 62 62 62 61 56 51 47 36 34
25 25 27 29 30 30 32 35 32 23 24 26 32 34 38 40 40 41 43 43 42 44 44 47 49 49 52 51 53 55 59 67 58 64 58 58 46 36 33 28 30 35 38
34 37 32 31 33 32 32 33 37 37 36 36 32 36 38 39 39 43 40 41 42 40 42 44 46 48 53 51 58 66 70 61 60 39 27 23 23 25 29 32 36 38 39
30 30 30 33 36 35 31 33 33 36 39 44 44 52 53 45 39 39 39 36 37 38 43 52 58 60 55 65 61 33 31 22 15 17 20 25 29 31 33 34 36 37 38
16 21 23 24 29 33 31 26 28 31 34 43 42 41 44 39 39 55 40 40 51 51 54 56 53 48 50 36 22 17 19 19 18 22 25 28 30 30 30 31 33 35 37
12 11 11 16 16 22 26 28 24 24 33 37 39 49 44 48 53 51 45 50 46 50 57 45 32 21 14 16 15 15 18 20 22 23 25 28 29 30 30 32 34 35 36
11 10 10 8 8 13 18 23 25 28 32 33 35 35 38 38 39 23 18 6 4 5 5 9 11 13 14 16 16 18 21 23 24 24 26 27 28 29 30 32 33 34 35
12 12 11 10 9 9 11 10 12 18 23 24 26 22 13 11 10 9 11 11 10 10 10 9 10 12 15 18 19 19 19 20 22 23 23 24 26 28 29 30 31 31 32
9 10 13 12 11 10 10 8 6 4 3 4 3 1 3 6 8 10 8 8 9 8 10 12 16 17 17 16 16 18 20 20 22 23 24 25 26 27 28 29 29 29 29
11 14 12 12 11 11 7 6 5 4 3 3 3 5 8 9 9 8 8 9 10 12 14 14 13 13 15 16 18 19 20 22 22 23 23 24 25 26 27 27 26 26 26
13 14 17 14 13 11 8 5 4 5 5 4 4 6 8 8 9 11 12 12 12 11 12 13 14 16 17 18 19 20 21 21 22 22 23 24 24 24 24 24 25 25 25
15 15 13 13 11 9 7 6 5 6 6 6 8 9 11 12 13 11 10 10 11 12 13 14 15 17 17 18 20 20 21 21 22 23 24 23 22 22 23 23 23 23 22
16 15 13 12 10 9 8 9 8 8 9 10 12 12 11 11 11 12 13 14 14 15 15 16 17 18 18 19 20 21 22 22 22 22 22 21 21 21 21 20 21 21 22
14 13 12 12 11 11 11 11 11 11 12 11 10 9 10 11 12 13 13 14 15 15 16 17 18 19 20 21 21 21 22 22 21 21 21 21 21 20 20 21 21 20 20
13 13 14 14 13 13 14 14 14 12 10 9 10 12 13 14 14 15 15 16 17 18 19 19 20 21 21 22 22 22 22 22 22 22 22 22 22 21 21 21 20 19 20
13 14 14 15 15 15 14 13 11 10 9 10 12 14 14 15 15 16 17 18 18 19 20 21 22 22 22 22 22 22 22 22 21 21 22 22 22 22 21 21 21 20 21
13 14 15 15 13 11 9 7 8 10 12 13 15 16 16 17 17 18 19 19 19 20 20 21 21 22 22 22 22 22 22 22 22 22 22 22 23 23 22 21 21 20 21
Wind_Direction
242 246 261 292 282 252 245 222 206 209 192 207 224 226 220 229 235 230 233 225 216 207 212 217 223 225 230 228 234 240 249 253 259 262 267 272 275 281 281 283 283 284 283
229 230 232 251 282 271 232 226 226 220 212 208 218 219 215 234 231 222 225 220 202 206 213 225 227 228 228 227 232 246 251 254 262 268 272 274 276 279 285 282 282 282 285
225 228 232 239 256 271 254 228 211 222 230 222 222 215 215 213 221 230 229 211 211 215 224 234 227 238 239 242 240 246 251 256 265 269 272 274 277 279 282 282 281 282 282
226 226 233 236 243 253 253 246 224 214 221 223 237 224 215 216 218 214 213 209 213 222 231 240 232 236 242 255 249 248 256 262 264 267 270 272 275 279 280 282 280 279 278
232 230 236 243 240 242 252 253 248 235 218 219 225 232 229 222 220 219 221 225 229 235 237 238 236 239 244 249 253 254 259 264 265 268 270 274 279 281 282 284 281 282 278
229 242 241 246 244 241 242 245 250 248 245 233 225 220 221 226 229 229 230 232 237 241 243 245 245 249 254 263 266 263 268 268 267 269 271 276 279 282 280 283 280 289 275
241 241 244 253 256 251 244 242 246 249 247 247 243 237 234 231 229 230 231 234 237 241 243 246 246 247 252 257 258 258 261 263 264 267 270 273 276 280 278 281 284 283 286
252 246 258 264 261 258 253 251 245 246 249 248 245 245 243 241 240 240 239 241 244 244 245 247 248 251 253 255 258 262 265 261 261 265 269 271 276 281 276 280 278 282 280
247 249 255 260 273 280 276 262 255 249 247 249 250 249 246 245 245 244 244 245 247 248 249 250 252 253 256 258 264 267 269 271 273 269 277 274 277 274 279 282 278 276 270
255 268 272 269 262 264 270 278 270 258 255 251 248 247 248 248 247 247 245 247 248 250 254 256 257 259 261 265 265 267 264 264 270 277 274 270 272 273 274 271 267 271 280
277 275 277 274 267 256 254 260 267 273 266 252 257 257 249 245 247 248 249 248 249 254 252 258 260 261 260 266 266 264 266 272 271 274 271 267 265 261 265 275 280 282 283
264 273 270 263 262 261 256 253 252 253 260 262 256 265 264 259 259 254 250 250 253 258 261 260 264 265 264 258 265 265 267 258 264 262 266 274 274 276 279 282 284 287 293
262 268 269 265 259 260 260 259 256 254 259 257 261 259 262 245 247 248 253 259 260 258 258 260 259 256 262 259 253 247 250 257 275 271 267 274 282 285 286 291 299 299 297
280 274 274 273 265 260 256 253 253 261 259 259 259 261 259 274 260 269 262 262 254 251 255 254 261 258 264 251 256 269 265 260 268 277 282 285 292 300 300 299 300 300 301
0 352 323 276 270 264 268 261 254 255 266 259 269 265 250 259 249 253 242 248 249 255 263 265 257 259 252 238 237 251 267 277 283 291 298 302 303 303 303 303 304 304 305
353 353 355 355 328 280 267 264 259 261 258 262 267 275 269 267 268 276 271 274 207 171 199 194 208 220 239 255 270 276 282 293 302 301 299 299 300 302 304 307 307 307 308
345 338 342 350 352 322 300 313 323 284 280 281 278 274 262 261 244 214 178 176 196 205 215 237 238 248 262 273 286 299 298 291 288 292 297 302 306 308 309 309 310 313 316
318 326 324 319 315 323 328 336 346 354 14 16 20 18 207 204 194 185 192 212 231 245 261 273 276 284 292 294 291 289 291 297 303 306 305 306 309 312 314 316 319 320 322
311 315 316 309 297 297 305 304 300 308 291 275 248 208 197 195 203 222 239 253 264 273 281 287 291 290 289 292 295 297 300 302 301 302 307 312 314 316 318 319 319 321 325
298 309 312 318 308 307 304 291 268 255 257 236 231 237 249 261 267 272 275 281 289 293 289 286 290 293 296 299 299 299 301 304 307 311 314 315 318 320 320 321 323 325 325
279 287 286 288 291 286 282 271 257 249 248 248 255 258 264 269 279 290 297 293 288 289 292 295 297 297 298 298 300 302 306 308 312 314 316 319 319 317 318 320 321 322 322
267 274 277 271 270 262 255 260 258 252 251 253 255 261 269 279 286 288 290 290 291 294 296 297 298 299 302 305 307 310 311 311 312 312 314 314 315 317 318 316 318 319 323
264 262 259 260 262 262 263 257 254 254 257 261 269 278 280 281 281 283 286 290 294 297 300 303 306 306 306 307 309 309 308 309 309 311 313 312 312 311 311 313 317 317 318
262 261 260 257 254 253 256 258 259 263 270 279 282 285 288 291 293 295 297 299 301 303 305 306 306 306 308 309 309 308 309 310 310 308 307 307 307 307 308 310 313 311 314
264 264 263 262 263 261 259 261 263 267 278 285 283 282 286 289 291 294 297 300 303 304 306 307 307 307 305 305 305 304 304 304 302 301 302 301 301 304 307 307 308 306 306
268 269 267 265 262 259 264 274 286 288 285 286 290 293 295 295 296 297 298 298 299 299 299 299 300 300 301 301 300 299 299 300 301 301 299 299 299 301 301 299 299 299 302